GSAT-7A

Last updated on Mon Oct 14 2024 00:02:41 GMT+0000 (Coordinated Universal Time)

1 43864U 18105A 24287.53660642 .00000025 00000+0 00000+0 0 9990 2 43864 0.0158 184.3708 0002408 23.5567 70.6184 1.00268447 21319
UTC large
Height (km)
Speed (km/s)
/
Latitude / Longitude
Inclination (degrees)
Orbital Period (minutes)
Azimuth
Elevation
Range (km)
Doppler Factor

Next 0 passes for location: London (51.5072 / 0.1276)

Sorry there are no passes over London.